{"data":{"norad_id":45590,"epoch":"2026-09-20T04:18:21.398976Z","epoch_age_seconds":46011,"freshness":"FRESH","line1":"1 45590U 20025BM  26263.17941434  .00060231  00000+0  38875-3 0  9999","line2":"2 45590  53.0381 223.9377 0004200  63.7937 296.3513 15.75552344355675","mean_motion":15.75552344,"eccentricity":0.00042,"inclination_deg":53.0381,"raan_deg":223.9377,"arg_perigee_deg":63.7937,"mean_anomaly_deg":296.3513,"bstar":0.00038875,"rev_number":35567,"period_min":91.396519162552,"perigee_km":340.23697890242,"apogee_km":345.88278428296,"semimajor_km":6721.1968815927,"source":"CELESTRAK","updated_at":"2026-09-20T09:00:38.449516Z"}}